TOM888 LFBD-ENAL

Flight info

Callsign TOM888
Flight time 2h 46m
Altitude 34000
Route OBLOC DCT BOKNO UN858 VANAD UN874 BAMES UT191 PODEM UN873 BAZOS DCT KOK DCT AMGOD DCT SUTEB DCT KARLI Z322 ALUVA DCT TUMIM
Aircraft B738/M-SDE2E3FGHIRWXY/LB1

Departure

Time 2026-04-23 07:57
Airport Bordeaux–Mérignac Airport (LFBD)

Arrival

Time 2026-04-23 10:44
Airport Ålesund Airport (ENAL)
Time Latitude Longitude Altitude Speed Heading
2026-04-23 07:25 44.82923 -0.70550 162 ft 0 kts 313°
2026-04-23 07:52 44.82922 -0.70564 161 ft 3 kts 258°
2026-04-23 07:53 44.82901 -0.70604 161 ft 7 kts 230°
2026-04-23 07:53 44.82890 -0.70688 161 ft 12 kts 284°
2026-04-23 07:53 44.82919 -0.70827 161 ft 18 kts 287°
2026-04-23 07:53 44.82961 -0.70932 161 ft 9 kts
2026-04-23 07:54 44.83009 -0.70880 161 ft 9 kts 45°
2026-04-23 07:54 44.83050 -0.70820 162 ft 9 kts 45°
2026-04-23 07:54 44.83105 -0.70741 162 ft 15 kts 45°
2026-04-23 07:54 44.83198 -0.70609 162 ft 23 kts 45°
2026-04-23 07:55 44.83315 -0.70440 161 ft 25 kts 45°
2026-04-23 07:55 44.83439 -0.70265 161 ft 25 kts 45°
2026-04-23 07:55 44.83555 -0.70099 161 ft 23 kts 46°
2026-04-23 07:55 44.83647 -0.70008 161 ft 12 kts
2026-04-23 07:56 44.83722 -0.70043 157 ft 13 kts 337°
2026-04-23 07:56 44.83814 -0.70102 160 ft 16 kts 336°
2026-04-23 07:56 44.83823 -0.70165 160 ft 7 kts 229°
2026-04-23 07:56 44.83747 -0.70273 159 ft 39 kts 225°
2026-04-23 07:57 44.83382 -0.70795 165 ft 109 kts 225°
2026-04-23 07:57 44.82698 -0.71758 168 ft 167 kts 221°
2026-04-23 07:57 44.81855 -0.73002 687 ft 178 kts 223°
2026-04-23 07:57 44.80999 -0.74251 1490 ft 179 kts 220°
2026-04-23 07:58 44.80113 -0.75501 2147 ft 192 kts 218°
2026-04-23 07:58 44.79091 -0.76926 2441 ft 216 kts 219°
2026-04-23 07:58 44.77993 -0.78467 2882 ft 228 kts 220°
2026-04-23 07:58 44.76678 -0.79804 3153 ft 244 kts 195°
2026-04-23 07:59 44.74979 -0.79949 3635 ft 252 kts 164°
2026-04-23 07:59 44.73470 -0.78758 4414 ft 251 kts 133°
2026-04-23 07:59 44.72383 -0.76821 5251 ft 255 kts 126°
2026-04-23 07:59 44.71332 -0.74780 6009 ft 261 kts 126°
2026-04-23 08:00 44.70261 -0.72727 6761 ft 266 kts 126°
2026-04-23 08:00 44.69144 -0.70626 7463 ft 272 kts 127°
2026-04-23 08:00 44.67995 -0.68487 8227 ft 275 kts 128°
2026-04-23 08:00 44.66829 -0.66300 8873 ft 285 kts 124°
2026-04-23 08:01 44.66113 -0.63682 9507 ft 294 kts 97°
2026-04-23 08:01 44.66083 -0.60796 10234 ft 298 kts 88°
2026-04-23 08:01 44.66195 -0.57814 10614 ft 316 kts 86°
2026-04-23 08:01 44.66335 -0.54615 10775 ft 340 kts 86°
2026-04-23 08:02 44.66478 -0.51246 10936 ft 361 kts 86°
2026-04-23 08:02 44.66620 -0.47640 11284 ft 375 kts 87°
2026-04-23 08:02 44.66756 -0.43931 11780 ft 384 kts 87°
2026-04-23 08:02 44.66888 -0.40168 12467 ft 386 kts 87°
2026-04-23 08:03 44.67016 -0.36389 13185 ft 389 kts 87°
2026-04-23 08:03 44.67143 -0.32563 13727 ft 396 kts 87°
2026-04-23 08:03 44.67271 -0.28683 14345 ft 398 kts 87°
2026-04-23 08:03 44.67397 -0.24789 14984 ft 400 kts 87°
2026-04-23 08:04 44.67764 -0.20959 15508 ft 404 kts 71°
2026-04-23 08:04 44.69075 -0.17506 16177 ft 401 kts 50°
2026-04-23 08:04 44.71102 -0.14846 16799 ft 400 kts 32°
2026-04-23 08:04 44.73592 -0.13140 17374 ft 400 kts 15°
2026-04-23 08:05 44.76285 -0.12158 17973 ft 401 kts 12°
2026-04-23 08:05 44.79011 -0.11250 18521 ft 404 kts 12°
2026-04-23 08:05 44.81766 -0.10356 18986 ft 408 kts 11°
2026-04-23 08:05 44.84539 -0.09451 19496 ft 410 kts 12°
2026-04-23 08:06 44.87289 -0.08541 19973 ft 413 kts 12°
2026-04-23 08:06 44.90090 -0.07601 20465 ft 415 kts 12°
2026-04-23 08:06 44.92909 -0.06644 20943 ft 418 kts 11°
2026-04-23 08:06 44.95743 -0.05674 21407 ft 421 kts 11°
2026-04-23 08:07 44.98596 -0.04693 21863 ft 423 kts 11°
2026-04-23 08:07 45.01466 -0.03703 22316 ft 426 kts 12°
2026-04-23 08:07 45.04354 -0.02705 22751 ft 429 kts 11°
2026-04-23 08:07 45.07259 -0.01699 23188 ft 431 kts 11°
2026-04-23 08:08 45.10177 -0.00688 23624 ft 433 kts 11°
2026-04-23 08:08 45.13071 0.00316 24043 ft 434 kts 11°
2026-04-23 08:08 45.16005 0.01335 24461 ft 434 kts 11°
2026-04-23 08:08 45.18948 0.02358 24804 ft 437 kts 11°
2026-04-23 08:09 45.21908 0.03387 25144 ft 439 kts 11°
2026-04-23 08:09 45.24881 0.04422 25498 ft 441 kts 11°
2026-04-23 08:09 45.27864 0.05462 25821 ft 443 kts 11°
2026-04-23 08:09 45.30865 0.06508 26140 ft 445 kts 11°
2026-04-23 08:10 45.33879 0.07561 26449 ft 447 kts 11°
2026-04-23 08:10 45.36867 0.08606 26755 ft 449 kts 11°
2026-04-23 08:10 45.42958 0.10740 27386 ft 453 kts 11°
2026-04-23 08:11 45.46020 0.11814 27673 ft 455 kts 11°
2026-04-23 08:11 45.49098 0.12895 27959 ft 457 kts 11°
2026-04-23 08:11 45.52190 0.13982 28263 ft 458 kts 11°
2026-04-23 08:11 45.55282 0.15071 28654 ft 457 kts 11°
2026-04-23 08:12 45.58360 0.16157 29132 ft 455 kts 11°
2026-04-23 08:12 45.61422 0.17239 29605 ft 452 kts 11°
2026-04-23 08:12 45.64427 0.18301 30021 ft 451 kts 11°
2026-04-23 08:12 45.67473 0.19378 30357 ft 451 kts 11°
2026-04-23 08:13 45.70519 0.20456 30678 ft 451 kts 10°
2026-04-23 08:13 45.73559 0.21533 31014 ft 449 kts 10°
2026-04-23 08:13 45.76590 0.22609 31361 ft 448 kts 10°
2026-04-23 08:13 45.79612 0.23682 31716 ft 447 kts 10°
2026-04-23 08:14 45.82621 0.24753 32073 ft 445 kts 10°
2026-04-23 08:14 45.85621 0.25820 32373 ft 444 kts 10°
2026-04-23 08:14 45.88581 0.26875 32651 ft 444 kts 10°
2026-04-23 08:14 45.91579 0.27944 32956 ft 443 kts 10°
2026-04-23 08:15 45.94569 0.29012 33269 ft 442 kts
2026-04-23 08:15 45.97553 0.30079 33560 ft 442 kts
2026-04-23 08:15 46.00528 0.31144 33893 ft 440 kts
2026-04-23 08:15 46.03492 0.32207 34199 ft 439 kts
2026-04-23 08:16 46.09458 0.34346 34176 ft 442 kts
2026-04-23 08:16 46.15350 0.36468 34179 ft 437 kts
2026-04-23 08:17 46.21237 0.38591 34179 ft 435 kts
2026-04-23 08:17 46.27099 0.40710 34204 ft 433 kts
2026-04-23 08:18 46.32935 0.42823 34189 ft 432 kts
2026-04-23 08:18 46.38748 0.44932 34201 ft 430 kts
2026-04-23 08:19 46.44508 0.47027 34203 ft 429 kts
2026-04-23 08:19 46.50297 0.49137 34211 ft 429 kts
2026-04-23 08:20 46.56080 0.51249 34209 ft 429 kts
2026-04-23 08:20 46.61872 0.53369 34219 ft 429 kts
2026-04-23 08:21 46.67671 0.55497 34208 ft 430 kts
2026-04-23 08:21 46.73434 0.57617 34214 ft 430 kts
2026-04-23 08:22 46.79243 0.59758 34212 ft 431 kts
2026-04-23 08:22 46.85057 0.61906 34215 ft 431 kts
2026-04-23 08:23 46.90873 0.64059 34216 ft 432 kts
2026-04-23 08:23 46.96659 0.66207 34224 ft 432 kts
2026-04-23 08:24 47.02485 0.68373 34222 ft 432 kts
2026-04-23 08:24 47.08351 0.69753 34241 ft 424 kts 359°
2026-04-23 08:25 47.14236 0.70274 34242 ft 423 kts 359°
2026-04-23 08:25 47.20111 0.70817 34261 ft 423 kts 359°
2026-04-23 08:26 47.25935 0.71409 34254 ft 422 kts 359°
2026-04-23 08:26 47.31792 0.72024 34263 ft 421 kts 359°
2026-04-23 08:27 47.37637 0.72640 34266 ft 421 kts 359°
2026-04-23 08:27 47.43468 0.73253 34270 ft 420 kts 359°
2026-04-23 08:28 47.49252 0.73981 34261 ft 422 kts
2026-04-23 08:28 47.54942 0.76396 34268 ft 428 kts 13°
2026-04-23 08:29 47.60568 0.79241 34278 ft 427 kts 13°
2026-04-23 08:29 47.66196 0.82045 34252 ft 426 kts 13°
2026-04-23 08:30 47.71822 0.84823 34284 ft 426 kts 13°
2026-04-23 08:30 47.77405 0.87580 34268 ft 426 kts 13°
2026-04-23 08:31 47.83026 0.90363 34263 ft 426 kts 13°
2026-04-23 08:31 47.88645 0.93181 34267 ft 426 kts 14°
2026-04-23 08:32 47.94260 0.96027 34276 ft 427 kts 14°
2026-04-23 08:32 47.99887 0.98882 34278 ft 427 kts 14°
2026-04-23 08:33 48.05486 1.01727 34282 ft 428 kts 14°
2026-04-23 08:33 48.11129 1.04600 34286 ft 429 kts 14°
2026-04-23 08:34 48.16780 1.07484 34290 ft 429 kts 14°
2026-04-23 08:34 48.22437 1.10376 34310 ft 430 kts 14°
2026-04-23 08:35 48.28059 1.13241 34299 ft 430 kts 14°
2026-04-23 08:35 48.33724 1.16128 34296 ft 430 kts 14°
2026-04-23 08:36 48.39379 1.19020 34305 ft 429 kts 14°
2026-04-23 08:36 48.45024 1.21915 34326 ft 428 kts 15°
2026-04-23 08:37 48.50615 1.24789 34311 ft 427 kts 15°
2026-04-23 08:37 48.56232 1.27678 34323 ft 426 kts 14°
2026-04-23 08:38 48.61838 1.30506 34355 ft 424 kts 14°
2026-04-23 08:38 48.67440 1.33321 34337 ft 424 kts 15°
2026-04-23 08:39 48.73026 1.36141 34333 ft 422 kts 15°
2026-04-23 08:39 48.78590 1.38962 34338 ft 421 kts 15°
2026-04-23 08:40 48.84092 1.41758 34340 ft 419 kts 15°
2026-04-23 08:40 48.89616 1.44572 34332 ft 418 kts 15°
2026-04-23 08:41 48.95130 1.47386 34347 ft 418 kts 15°
2026-04-23 08:41 49.00691 1.49503 34359 ft 413 kts
2026-04-23 08:42 49.06394 1.50734 34350 ft 414 kts
2026-04-23 08:42 49.12111 1.52013 34348 ft 417 kts
2026-04-23 08:43 49.17863 1.53359 34351 ft 420 kts
2026-04-23 08:43 49.23615 1.55047 34337 ft 425 kts 17°
2026-04-23 08:44 49.28846 1.59279 34345 ft 435 kts 33°
2026-04-23 08:44 49.33322 1.65614 34356 ft 440 kts 40°
2026-04-23 08:45 49.37705 1.72185 34356 ft 441 kts 40°
2026-04-23 08:45 49.42125 1.78710 34375 ft 441 kts 40°
2026-04-23 08:46 49.46534 1.85179 34362 ft 441 kts 41°
2026-04-23 08:46 49.51215 1.91215 34393 ft 438 kts 30°
2026-04-23 08:47 49.56749 1.95011 34398 ft 436 kts 16°
2026-04-23 08:47 49.62601 1.97572 34400 ft 438 kts 15°
2026-04-23 08:48 49.68436 2.00099 34389 ft 439 kts 15°
2026-04-23 08:48 49.74321 2.02701 34388 ft 441 kts 16°
2026-04-23 08:49 49.80220 2.05345 34389 ft 442 kts 16°
2026-04-23 08:49 49.86145 2.08016 34391 ft 444 kts 16°
2026-04-23 08:50 49.92079 2.10698 34394 ft 445 kts 16°
2026-04-23 08:50 49.97987 2.13374 34388 ft 446 kts 17°
2026-04-23 08:51 50.03945 2.16079 34404 ft 446 kts 17°
2026-04-23 08:51 50.09912 2.18795 34402 ft 447 kts 17°
2026-04-23 08:52 50.15881 2.21520 34408 ft 447 kts 17°
2026-04-23 08:52 50.21817 2.24235 34401 ft 448 kts 18°
2026-04-23 08:53 50.27793 2.26977 34416 ft 448 kts 18°
2026-04-23 08:53 50.33773 2.29728 34421 ft 448 kts 18°
2026-04-23 08:54 50.39758 2.32487 34417 ft 449 kts 19°
2026-04-23 08:54 50.45719 2.35244 34432 ft 450 kts 19°
2026-04-23 08:55 50.51737 2.38034 34440 ft 452 kts 19°
2026-04-23 08:55 50.57784 2.40845 34453 ft 455 kts 19°
2026-04-23 08:56 50.63886 2.43690 34753 ft 458 kts 20°
2026-04-23 08:56 50.66947 2.45120 34911 ft 460 kts 20°
2026-04-23 08:56 50.69971 2.46533 35150 ft 459 kts 20°
2026-04-23 08:57 50.73024 2.47962 35427 ft 457 kts 20°
2026-04-23 08:57 50.76084 2.49397 35418 ft 461 kts 20°
2026-04-23 08:57 50.82217 2.52279 35429 ft 458 kts 20°
2026-04-23 08:58 50.88300 2.55144 35428 ft 455 kts 20°
2026-04-23 08:58 50.94356 2.58006 35445 ft 453 kts 20°
2026-04-23 08:59 51.00362 2.60854 35449 ft 454 kts 20°
2026-04-23 08:59 51.06419 2.63732 35451 ft 455 kts 20°
2026-04-23 09:00 51.12492 2.66686 35453 ft 457 kts 21°
2026-04-23 09:00 51.18539 2.69882 35456 ft 459 kts 22°
2026-04-23 09:01 51.24602 2.73137 35455 ft 461 kts 22°
2026-04-23 09:01 51.30659 2.76372 35448 ft 463 kts 22°
2026-04-23 09:02 51.36782 2.79630 35450 ft 464 kts 22°
2026-04-23 09:02 51.42917 2.82899 35458 ft 465 kts 22°
2026-04-23 09:03 51.49070 2.86187 35456 ft 466 kts 23°
2026-04-23 09:03 51.55185 2.89464 35435 ft 467 kts 24°
2026-04-23 09:04 51.61343 2.92774 35461 ft 467 kts 24°
2026-04-23 09:04 51.67502 2.96095 35469 ft 467 kts 24°
2026-04-23 09:05 51.73664 2.99427 35469 ft 467 kts 24°
2026-04-23 09:05 51.79782 3.02744 35463 ft 467 kts 24°
2026-04-23 09:06 51.85941 3.06094 35471 ft 467 kts 24°
2026-04-23 09:06 51.92103 3.09455 35475 ft 467 kts 24°
2026-04-23 09:07 51.98263 3.12824 35482 ft 467 kts 24°
2026-04-23 09:07 52.04427 3.16205 35473 ft 467 kts 24°
2026-04-23 09:08 52.10549 3.19574 35483 ft 468 kts 24°
2026-04-23 09:08 52.16710 3.22974 35478 ft 468 kts 24°
2026-04-23 09:09 52.22879 3.26388 35476 ft 468 kts 24°
2026-04-23 09:09 52.29050 3.29813 35477 ft 468 kts 24°
2026-04-23 09:10 52.38268 3.34948 35482 ft 469 kts 24°
2026-04-23 09:11 52.44452 3.38406 35481 ft 470 kts 24°
2026-04-23 09:11 52.50640 3.41877 35472 ft 470 kts 24°
2026-04-23 09:12 52.56828 3.45357 35485 ft 470 kts 24°
2026-04-23 09:12 52.62983 3.48830 35486 ft 471 kts 24°
2026-04-23 09:13 52.69180 3.52337 35479 ft 471 kts 24°
2026-04-23 09:13 52.75376 3.55853 35481 ft 471 kts 24°
2026-04-23 09:14 52.81567 3.59378 35492 ft 470 kts 24°
2026-04-23 09:14 52.87751 3.62909 35489 ft 470 kts 24°
2026-04-23 09:15 52.93885 3.66422 35490 ft 470 kts 24°
2026-04-23 09:15 52.99976 3.70240 35495 ft 465 kts 30°
2026-04-23 09:16 53.05774 3.74951 35489 ft 463 kts 32°
2026-04-23 09:16 53.11516 3.79805 35493 ft 463 kts 32°
2026-04-23 09:17 53.17244 3.84578 35493 ft 464 kts 31°
2026-04-23 09:17 53.23026 3.89341 35482 ft 464 kts 31°
2026-04-23 09:18 53.28816 3.94102 35491 ft 464 kts 31°
2026-04-23 09:18 53.34608 3.98878 35492 ft 464 kts 31°
2026-04-23 09:19 53.40401 4.03674 35491 ft 465 kts 31°
2026-04-23 09:19 53.46155 4.08452 35491 ft 465 kts 31°
2026-04-23 09:20 53.51953 4.13282 35491 ft 465 kts 31°
2026-04-23 09:20 53.57749 4.18125 35488 ft 465 kts 31°
2026-04-23 09:21 53.63535 4.22975 35486 ft 465 kts 31°
2026-04-23 09:21 53.69280 4.27805 35475 ft 464 kts 31°
2026-04-23 09:22 53.75051 4.32673 35486 ft 464 kts 31°
2026-04-23 09:22 53.80820 4.37553 35485 ft 463 kts 31°
2026-04-23 09:23 53.86585 4.42445 35480 ft 463 kts 31°
2026-04-23 09:23 53.92346 4.47349 35466 ft 463 kts 31°
2026-04-23 09:24 53.98063 4.52231 35479 ft 463 kts 31°
2026-04-23 09:24 54.03822 4.57164 35479 ft 464 kts 31°
2026-04-23 09:25 54.09586 4.62117 35477 ft 464 kts 31°
2026-04-23 09:25 54.15352 4.67087 35473 ft 465 kts 31°
2026-04-23 09:26 54.21088 4.72047 35462 ft 465 kts 31°
2026-04-23 09:26 54.26866 4.77058 35463 ft 466 kts 31°
2026-04-23 09:27 54.32647 4.82088 35467 ft 466 kts 31°
2026-04-23 09:27 54.38433 4.87139 35465 ft 467 kts 31°
2026-04-23 09:28 54.44183 4.92174 35455 ft 467 kts 31°
2026-04-23 09:28 54.49967 4.97254 35463 ft 467 kts 31°
2026-04-23 09:29 54.55754 5.02354 35459 ft 467 kts 31°
2026-04-23 09:29 54.61540 5.07469 35459 ft 467 kts 31°
2026-04-23 09:30 54.67321 5.12597 35445 ft 467 kts 31°
2026-04-23 09:30 54.73064 5.17707 35454 ft 467 kts 31°
2026-04-23 09:31 54.78841 5.22865 35455 ft 467 kts 31°
2026-04-23 09:31 54.84614 5.28035 35452 ft 467 kts 31°
2026-04-23 09:32 54.90387 5.33222 35447 ft 467 kts 31°
2026-04-23 09:32 54.96120 5.38385 35450 ft 467 kts 30°
2026-04-23 09:33 55.02317 5.41923 35452 ft 474 kts 11°
2026-04-23 09:33 55.08924 5.42546 35448 ft 477 kts
2026-04-23 09:34 55.15563 5.42674 35433 ft 477 kts
2026-04-23 09:34 55.22153 5.42853 35440 ft 477 kts
2026-04-23 09:35 55.28790 5.43107 35440 ft 477 kts
2026-04-23 09:35 55.35427 5.43392 35440 ft 477 kts
2026-04-23 09:36 55.42061 5.43680 35434 ft 477 kts
2026-04-23 09:36 55.48697 5.43966 35442 ft 477 kts
2026-04-23 09:37 55.55283 5.44248 35430 ft 477 kts
2026-04-23 09:37 55.61915 5.44533 35429 ft 477 kts
2026-04-23 09:38 55.68547 5.44819 35422 ft 476 kts
2026-04-23 09:38 55.75175 5.45106 35426 ft 476 kts
2026-04-23 09:39 55.81800 5.45394 35419 ft 476 kts
2026-04-23 09:39 55.88385 5.45681 35423 ft 476 kts
2026-04-23 09:40 55.95015 5.45971 35427 ft 477 kts
2026-04-23 09:40 56.01643 5.46262 35422 ft 477 kts
2026-04-23 09:41 56.08277 5.46554 35427 ft 477 kts
2026-04-23 09:41 56.14869 5.46845 35427 ft 477 kts
2026-04-23 09:42 56.21503 5.47139 35406 ft 477 kts
2026-04-23 09:42 56.28144 5.47435 35416 ft 477 kts
2026-04-23 09:43 56.34787 5.47731 35426 ft 477 kts
2026-04-23 09:43 56.41432 5.48029 35415 ft 478 kts
2026-04-23 09:44 56.48039 5.48326 35402 ft 478 kts
2026-04-23 09:44 56.54694 5.48627 35402 ft 479 kts
2026-04-23 09:45 56.61349 5.48928 35401 ft 479 kts
2026-04-23 09:45 56.68011 5.49231 35411 ft 479 kts
2026-04-23 09:46 56.74633 5.49533 35409 ft 479 kts
2026-04-23 09:46 56.81301 5.49838 35399 ft 480 kts
2026-04-23 09:47 56.87978 5.50145 35387 ft 480 kts
2026-04-23 09:47 56.94656 5.50453 35390 ft 480 kts
2026-04-23 09:48 57.01332 5.50516 35391 ft 480 kts 354°
2026-04-23 09:48 57.07886 5.48752 35399 ft 479 kts 349°
2026-04-23 09:49 57.14459 5.46676 35385 ft 479 kts 349°
2026-04-23 09:49 57.21037 5.44681 35402 ft 479 kts 350°
2026-04-23 09:50 57.27628 5.42761 35398 ft 479 kts 350°
2026-04-23 09:50 57.34175 5.40872 35382 ft 479 kts 350°
2026-04-23 09:51 57.40758 5.38965 35396 ft 479 kts 350°
2026-04-23 09:51 57.47341 5.37046 35403 ft 478 kts 350°
2026-04-23 09:52 57.53920 5.35120 35385 ft 479 kts 350°
2026-04-23 09:52 57.60496 5.33188 35385 ft 478 kts 349°
2026-04-23 09:53 57.67025 5.31262 35414 ft 478 kts 349°
2026-04-23 09:53 57.73599 5.29316 35397 ft 478 kts 349°
2026-04-23 09:54 57.80166 5.27365 35394 ft 478 kts 349°
2026-04-23 09:54 57.86735 5.25406 35404 ft 478 kts 349°
2026-04-23 09:55 57.93256 5.23455 35391 ft 478 kts 349°
2026-04-23 09:55 57.99812 5.21485 35395 ft 477 kts 349°
2026-04-23 09:56 58.06369 5.19508 35406 ft 477 kts 349°
2026-04-23 09:56 58.12923 5.17534 35402 ft 477 kts 349°
2026-04-23 09:57 58.18408 5.16393 35413 ft 477 kts 353°
2026-04-23 09:57 58.26103 5.15306 35421 ft 477 kts 353°
2026-04-23 09:58 58.32722 5.14358 35415 ft 476 kts 353°
2026-04-23 09:58 58.39323 5.13334 35407 ft 476 kts 353°
2026-04-23 09:59 58.44794 5.12456 35418 ft 475 kts 353°
2026-04-23 09:59 58.52441 5.11221 35428 ft 474 kts 353°
2026-04-23 10:00 58.57898 5.10338 35408 ft 473 kts 353°
2026-04-23 10:00 58.64452 5.09277 35417 ft 472 kts 352°
2026-04-23 10:01 58.71000 5.08213 35427 ft 472 kts 353°
2026-04-23 10:01 58.78603 5.06972 35428 ft 472 kts 353°
2026-04-23 10:02 58.84089 5.06073 35409 ft 472 kts 352°
2026-04-23 10:02 58.90598 5.05002 35426 ft 473 kts 353°
2026-04-23 10:03 58.97166 5.03919 35432 ft 474 kts 353°
2026-04-23 10:03 59.04814 5.02652 35422 ft 475 kts 353°
2026-04-23 10:04 59.10329 5.01734 35424 ft 475 kts 352°
2026-04-23 10:04 59.16878 5.00641 35432 ft 475 kts 353°
2026-04-23 10:05 59.23468 4.99537 35431 ft 475 kts 353°
2026-04-23 10:05 59.30055 4.98429 35422 ft 475 kts 352°
2026-04-23 10:06 59.36630 4.97324 35427 ft 474 kts 353°
2026-04-23 10:06 59.43166 4.98131 35450 ft 476 kts
2026-04-23 10:07 59.49658 5.00710 35430 ft 476 kts 10°
2026-04-23 10:07 59.56134 5.03358 35433 ft 475 kts
2026-04-23 10:08 59.62606 5.05921 35427 ft 474 kts
2026-04-23 10:08 59.69068 5.08431 35430 ft 473 kts
2026-04-23 10:09 59.78704 5.12171 35434 ft 472 kts
2026-04-23 10:09 59.85149 5.14689 35434 ft 472 kts
2026-04-23 10:10 59.91593 5.17218 35427 ft 472 kts
2026-04-23 10:10 59.97994 5.19741 35432 ft 472 kts
2026-04-23 10:11 60.04437 5.22291 35448 ft 472 kts
2026-04-23 10:11 60.10881 5.24851 35461 ft 472 kts
2026-04-23 10:12 60.17324 5.27421 35451 ft 472 kts
2026-04-23 10:12 60.23762 5.29999 35455 ft 471 kts
2026-04-23 10:13 60.30148 5.32567 35456 ft 471 kts
2026-04-23 10:13 60.36579 5.35163 35458 ft 471 kts
2026-04-23 10:14 60.42998 5.37765 35448 ft 470 kts
2026-04-23 10:14 60.49365 5.40357 35439 ft 469 kts
2026-04-23 10:15 60.55758 5.42968 35425 ft 468 kts
2026-04-23 10:15 60.62127 5.45581 35415 ft 466 kts
2026-04-23 10:16 60.68467 5.48193 35437 ft 464 kts
2026-04-23 10:16 60.74777 5.50803 35417 ft 461 kts
2026-04-23 10:17 60.81007 5.53389 35428 ft 459 kts
2026-04-23 10:17 60.87257 5.55994 35424 ft 458 kts
2026-04-23 10:18 60.93487 5.58601 35435 ft 456 kts
2026-04-23 10:18 60.96604 5.59909 35186 ft 460 kts
2026-04-23 10:18 60.99748 5.61229 34626 ft 461 kts
2026-04-23 10:19 61.02845 5.62534 33960 ft 461 kts
2026-04-23 10:19 61.05983 5.63860 33248 ft 461 kts
2026-04-23 10:19 61.09121 5.65188 32588 ft 460 kts
2026-04-23 10:19 61.12252 5.66516 31877 ft 460 kts
2026-04-23 10:20 61.15393 5.67851 31158 ft 461 kts
2026-04-23 10:20 61.18527 5.69185 30575 ft 458 kts
2026-04-23 10:20 61.21634 5.70513 29998 ft 454 kts
2026-04-23 10:20 61.24707 5.71828 29453 ft 448 kts
2026-04-23 10:21 61.27741 5.73130 28921 ft 442 kts
2026-04-23 10:21 61.30697 5.74399 28409 ft 437 kts
2026-04-23 10:21 61.33661 5.75673 27897 ft 432 kts
2026-04-23 10:21 61.36587 5.76933 27377 ft 428 kts
2026-04-23 10:22 61.39490 5.78185 26867 ft 424 kts
2026-04-23 10:22 61.42363 5.79428 26369 ft 420 kts
2026-04-23 10:22 61.45214 5.80662 25867 ft 416 kts
2026-04-23 10:22 61.48039 5.81888 25381 ft 413 kts
2026-04-23 10:23 61.50845 5.83107 24895 ft 410 kts
2026-04-23 10:23 61.53629 5.84320 24414 ft 407 kts
2026-04-23 10:23 61.56358 5.85510 23911 ft 405 kts
2026-04-23 10:23 61.59107 5.86712 23358 ft 402 kts
2026-04-23 10:24 61.61835 5.87907 22834 ft 399 kts
2026-04-23 10:24 61.64535 5.89093 22354 ft 395 kts
2026-04-23 10:24 61.67216 5.90271 21861 ft 392 kts
2026-04-23 10:24 61.69872 5.91441 21383 ft 388 kts 10°
2026-04-23 10:25 61.72392 5.92577 20938 ft 385 kts 12°
2026-04-23 10:25 61.74917 5.94476 20477 ft 386 kts 21°
2026-04-23 10:25 61.77345 5.96850 20003 ft 384 kts 23°
2026-04-23 10:25 61.79713 5.99251 19561 ft 382 kts 23°
2026-04-23 10:26 61.82105 6.01661 19068 ft 381 kts 22°
2026-04-23 10:26 61.84499 6.04032 18577 ft 379 kts 22°
2026-04-23 10:26 61.86890 6.06367 18050 ft 377 kts 21°
2026-04-23 10:26 61.89268 6.08671 17550 ft 374 kts 21°
2026-04-23 10:27 61.91626 6.10949 17086 ft 371 kts 21°
2026-04-23 10:27 61.93970 6.13214 16618 ft 369 kts 21°
2026-04-23 10:27 61.96294 6.15461 16152 ft 366 kts 21°
2026-04-23 10:27 61.98571 6.17669 15711 ft 363 kts 21°
2026-04-23 10:28 62.00856 6.19889 15266 ft 360 kts 21°
2026-04-23 10:28 62.03129 6.22104 14693 ft 360 kts 21°
2026-04-23 10:28 62.05431 6.24351 14007 ft 365 kts 21°
2026-04-23 10:28 62.07744 6.26615 13430 ft 364 kts 21°
2026-04-23 10:29 62.10033 6.28864 12967 ft 360 kts 21°
2026-04-23 10:29 62.12298 6.31092 12495 ft 357 kts 21°
2026-04-23 10:29 62.14540 6.33301 12032 ft 353 kts 21°
2026-04-23 10:29 62.16758 6.35489 11591 ft 349 kts 21°
2026-04-23 10:30 62.18920 6.37625 11146 ft 345 kts 21°
2026-04-23 10:30 62.21075 6.39758 10841 ft 334 kts 21°
2026-04-23 10:30 62.23129 6.41799 10746 ft 318 kts 21°
2026-04-23 10:30 62.25106 6.43762 10623 ft 309 kts 21°
2026-04-23 10:31 62.27029 6.45671 10472 ft 301 kts 20°
2026-04-23 10:31 62.28900 6.47529 10345 ft 291 kts 20°
2026-04-23 10:31 62.30711 6.49331 10219 ft 283 kts 20°
2026-04-23 10:31 62.32476 6.51092 10078 ft 275 kts 20°
2026-04-23 10:32 62.34165 6.52778 9977 ft 267 kts 20°
2026-04-23 10:32 62.35814 6.54395 9849 ft 258 kts 19°
2026-04-23 10:32 62.37464 6.55946 9524 ft 259 kts 18°
2026-04-23 10:32 62.39110 6.57487 9239 ft 257 kts 18°
2026-04-23 10:33 62.40745 6.59027 8961 ft 256 kts 18°
2026-04-23 10:33 62.42375 6.60567 8679 ft 255 kts 18°
2026-04-23 10:33 62.44004 6.62109 8402 ft 256 kts 18°
2026-04-23 10:33 62.45629 6.63679 8110 ft 256 kts 20°
2026-04-23 10:34 62.47205 6.65373 7822 ft 256 kts 21°
2026-04-23 10:34 62.48806 6.67139 7563 ft 254 kts 21°
2026-04-23 10:34 62.50358 6.68844 7296 ft 254 kts 21°
2026-04-23 10:34 62.51930 6.70565 7043 ft 252 kts 21°
2026-04-23 10:35 62.53471 6.72250 6940 ft 245 kts 21°
2026-04-23 10:35 62.54972 6.73892 6795 ft 238 kts 20°
2026-04-23 10:35 62.56423 6.75474 6708 ft 229 kts 18°
2026-04-23 10:35 62.57909 6.76179 6502 ft 215 kts 350°
2026-04-23 10:36 62.59332 6.75491 6303 ft 208 kts 336°
2026-04-23 10:36 62.60635 6.74171 6067 ft 206 kts 332°
2026-04-23 10:36 62.61916 6.72848 5799 ft 207 kts 333°
2026-04-23 10:36 62.63198 6.71542 5601 ft 200 kts 333°
2026-04-23 10:37 62.64450 6.70270 5377 ft 197 kts 333°
2026-04-23 10:37 62.65678 6.69022 5117 ft 192 kts 331°
2026-04-23 10:37 62.66616 6.67151 4872 ft 182 kts 291°
2026-04-23 10:37 62.66632 6.64443 4772 ft 185 kts 259°
2026-04-23 10:38 62.66368 6.61680 4590 ft 187 kts 261°
2026-04-23 10:38 62.66056 6.58966 4386 ft 187 kts 255°
2026-04-23 10:38 62.65671 6.56307 4139 ft 182 kts 253°
2026-04-23 10:38 62.65238 6.53740 3877 ft 180 kts 249°
2026-04-23 10:39 62.64742 6.51265 3608 ft 178 kts 246°
2026-04-23 10:39 62.64227 6.48849 3348 ft 174 kts 245°
2026-04-23 10:39 62.63714 6.46484 3094 ft 171 kts 245°
2026-04-23 10:39 62.63223 6.44227 2997 ft 160 kts 245°
2026-04-23 10:40 62.62746 6.42031 2995 ft 162 kts 245°
2026-04-23 10:40 62.62255 6.39773 2871 ft 168 kts 245°
2026-04-23 10:40 62.61759 6.37485 2638 ft 166 kts 245°
2026-04-23 10:40 62.61278 6.35269 2424 ft 163 kts 245°
2026-04-23 10:41 62.60801 6.33069 2194 ft 159 kts 245°
2026-04-23 10:41 62.60337 6.30923 1969 ft 156 kts 245°
2026-04-23 10:41 62.59873 6.28781 1759 ft 158 kts 245°
2026-04-23 10:41 62.59409 6.26632 1538 ft 153 kts 245°
2026-04-23 10:42 62.58967 6.24586 1306 ft 150 kts 245°
2026-04-23 10:42 62.58527 6.22546 1106 ft 147 kts 245°
2026-04-23 10:42 62.58103 6.20583 882 ft 142 kts 245°
2026-04-23 10:42 62.57697 6.18695 698 ft 136 kts 244°
2026-04-23 10:43 62.57308 6.16866 562 ft 135 kts 243°
2026-04-23 10:43 62.56902 6.14973 330 ft 144 kts 244°
2026-04-23 10:43 62.56471 6.12994 124 ft 146 kts 243°
2026-04-23 10:43 62.56061 6.11112 84 ft 119 kts 245°
2026-04-23 10:44 62.55797 6.09903 49 ft 58 kts 244°
2026-04-23 10:44 62.55704 6.09442 46 ft 22 kts 248°
2026-04-23 10:44 62.55615 6.09158 40 ft 23 kts 216°
2026-04-23 10:44 62.55601 6.09017 39 ft 9 kts 352°
2026-04-23 10:45 62.55635 6.09140 40 ft 13 kts 72°
2026-04-23 10:45 62.55687 6.09392 43 ft 23 kts 65°
2026-04-23 10:45 62.55764 6.09751 51 ft 28 kts 64°
2026-04-23 10:45 62.55857 6.10168 57 ft 32 kts 64°
2026-04-23 10:46 62.55949 6.10603 68 ft 25 kts 74°
2026-04-23 10:46 62.55917 6.10948 78 ft 20 kts 103°
2026-04-23 10:46 62.55902 6.11081 75 ft 7 kts 99°
2026-04-23 10:46 62.55908 6.11177 72 ft 4 kts 70°
2026-04-23 10:47 62.55918 6.11229 76 ft 4 kts 66°
2026-04-23 10:47 62.55929 6.11279 72 ft 4 kts 63°
2026-04-23 10:47 62.55940 6.11328 75 ft 4 kts 64°
2026-04-23 10:47 62.55952 6.11378 75 ft 5 kts 63°
2026-04-23 10:48 62.55973 6.11466 72 ft 6 kts 64°
2026-04-23 10:48 62.55971 6.11505 70 ft 2 kts 124°
2026-04-23 10:48 62.55958 6.11525 70 ft 2 kts 152°
2026-04-23 10:48 62.55944 6.11541 78 ft 2 kts 154°
2026-04-23 10:49 62.55933 6.11552 76 ft 1 kts 154°
2026-04-23 10:49 62.55932 6.11553 76 ft 0 kts 154°